STARLINK-34082

Satellite information

Favourite Embed

Satellite Type and Status

PAYLOADIN ORBIT

Key statistics

Satellite STARLINK-34082 at a glance.

Uptime

204

Days in orbit

Revolutions

≈ 15.3

Per day

Orbit

LEO

Low Earth Orbit

Inclination

53.2

Latest

Satellite identification and parameters

Extended collection of information and parameters for STARLINK-34082.

Object identification

Identified? True

Debris? False

Object name: STARLINK-34082

International designator: 2025-110E

Object number (NORAD): 64100

Object ID (CCSDS): 64100

Country: UNITED STATES OF AMERICA (US)

Current information (Y/N): Y

RCS size: LARGE

Orbital parameters

Period: 94.105 minutes

Inclination: 53.1584 deg

SMA: 6853.317 km

Apoapsis: 475.764 km

Periapsis: 474.601 km

RAAN: 73.1092 deg

Eccentricy: 0.00008489

Argument of periapsis: 339.2385 deg

Mean anomaly: 20.8581 deg

Mean motion: 15.30211626 rev/day

Mean motion (dot): 0.00065629 rev/day2

B* drag term: 0.0022076904 1/REarth

Two-line elements (TLE)

Creation date: Dec. 12, 2025, 10:14 a.m.

Reference frame: TEME

Reference center: EARTH

Epoch: Dec. 12, 2025, 6:20 a.m. UTC

TLE line 0: 0 STARLINK-34082

TLE line 1: 1 64100U 25110E 25346.26422532 .00065629 00000-0 22077-2 0 9994

TLE line 2: 2 64100 53.1584 73.1092 0000849 339.2385 20.8581 15.30211626 32494

Live tracking on map

Real-time ground track for satellite STARLINK-34082.

In-orbit conjunctions

There are no conjunctions computed for STARLINK-34082, at the moment. Check back to stay up to date, as we update our databases every day.

Go to all conjunctions

Associated space launch

A batch of 27 satellites for the Starlink mega-constellation - SpaceX's project for space-based Internet communication system.

STARLINK-34082 was lifted into orbit during the mission ‘Falcon 9 Block 5 | Starlink Group 11-16’, on board a Falcon 9 space rocket.

The launch took place on May 23, 2025, 10:32 p.m. from Space Launch Complex 4E.

For more information about the launch, click the button.

Launch to space Falcon 9 Block 5 | Starlink Group 11-16
Falcon 9 Block 5 | Starlink Group 11-16

Agency: SpaceX

Status: Launch Successful

Launch date: May 23, 2025, 10:32 p.m. UTC

Rocket: Falcon 9

Launch pad: Space Launch Complex 4E

Location: Vandenberg SFB, CA, USA

...

Latest news about this satellite

News about space launch
Launch Roundup: SpaceX to start new Starlink shell; China, Russia to launch unknown payloads

This week, SpaceX will begin building a new shell for its Starlink constellation, launching from… The post Launch Roundup: SpaceX to start new Starlink shell; China, Russia to launch unknown payloads appeared first on NASASpaceFlight.com.


Newsletter sign-up

Weekly statistics, charts and insights to help you stay on top of the space industry.